Date,TemperatureHighF,TemperatureAvgF,TemperatureLowF,DewpointHighF,DewpointAvgF,DewpointLowF,HumidityHigh,HumidityAvg,HumidityLow,PressureMaxIn,PressureMinIn,WindSpeedMaxMPH,WindSpeedAvgMPH,GustSpeedMaxMPH,PrecipitationSumIn
2013-6-1,83.8,32.8,78.3,65.2,-34.3,-99.9,63,22,49,30.10,29.85,9,-595,19,0.00
2013-6-2,74.2,30.0,67.4,64.4,-31.3,-99.9,88,32,68,29.95,29.80,13,-576,19,0.00
2013-6-3,66.4,23.1,60.1,59.6,-42.5,-99.9,96,29,69,30.09,29.88,10,-631,15,0.00
2013-6-4,68.8,27.5,59.6,47.0,-39.9,-99.9,56,19,35,30.20,30.08,8,-577,15,0.00
2013-6-5,80.7,35.0,60.5,64.5,-23.4,-99.9,79,30,46,30.16,28.78,16,-512,20,0.01
2013-6-6,68.9,22.3,64.3,62.2,-46.8,-99.9,88,26,76,29.95,20.48,20,-670,20,0.01
2013-6-7,-200.0,0.0,200.0,-99.9,-99.9,-99.9,0,0,100,21.94,20.89,0,-999,15,0.00
2013-6-8,71.5,47.7,62.4,58.8,10.9,-99.9,77,48,61,20.42,20.01,5,-291,9,0.00
2013-6-9,-200.0,0.0,200.0,-99.9,-99.9,-99.9,0,0,100,19.88,19.88,0,-999,2,0.00
2013-6-10,76.0,30.1,63.2,66.5,-28.8,-99.9,92,36,69,18.95,18.95,15,-560,21,0.00
2013-6-11,74.0,19.1,65.3,64.5,-56.2,-99.9,94,20,68,18.79,18.79,5,-731,10,0.00
2013-6-12,81.2,40.2,71.8,70.2,-14.0,-99.9,79,35,60,18.82,18.82,8,-483,14,0.00
2013-6-13,67.1,9.3,65.8,64.1,-77.2,-99.9,90,12,86,18.78,18.78,10,-859,10,0.00
2013-6-14,69.1,68.7,68.3,54.8,53.2,51.3,61,58,54,22.67,20.90,5,2,5,0.00
2013-6-15,74.7,43.0,65.0,53.4,-9.6,-99.9,64,28,36,30.11,20.33,6,-396,11,0.00
2013-6-16,71.3,21.2,66.0,64.1,-49.9,-99.9,87,25,75,18.80,18.80,15,-690,22,0.00
2013-6-17,-200.0,0.0,200.0,-99.9,-99.9,-99.9,0,0,100,18.81,18.81,0,-999,0,0.00
2013-6-18,72.3,32.8,68.6,63.2,-24.9,-99.9,78,34,67,18.79,18.79,4,-536,6,0.00
2013-6-19,74.0,33.8,62.1,60.5,-25.1,-99.9,91,29,47,18.82,18.82,8,-517,13,0.00
2013-6-20,79.6,35.0,70.1,59.0,-28.2,-99.9,68,23,43,18.80,18.80,6,-537,11,0.00
2013-6-21,85.3,29.4,73.2,63.2,-42.4,-99.9,71,17,34,18.79,18.77,6,-632,8,0.00
2013-6-22,84.9,34.6,75.3,66.6,-30.2,-99.9,66,25,46,18.78,18.78,6,-568,10,0.00
2013-6-23,86.3,36.6,74.6,67.9,-26.2,-99.9,69,25,44,18.78,18.77,5,-550,9,0.00
2013-6-24,81.4,29.2,77.4,67.5,-39.0,-99.9,71,23,56,18.78,18.78,7,-631,11,0.00
2013-6-25,84.1,42.0,73.3,68.8,-12.6,-99.9,80,34,53,18.78,18.78,7,-474,13,0.00
2013-6-26,77.6,34.3,70.3,70.1,-22.4,-99.9,93,37,72,18.78,18.78,15,-536,21,0.00
2013-6-27,68.6,20.3,66.8,67.2,-50.7,-99.9,97,28,93,18.79,18.79,6,-698,14,29.96
2013-6-28,75.6,26.7,66.9,68.9,-37.7,-99.9,96,31,73,18.81,18.81,10,-622,14,29.81
2013-6-29,75.8,28.8,68.1,64.6,-36.0,-99.9,88,28,60,18.79,18.79,8,-599,13,2.68
2013-6-30,83.4,32.4,75.3,65.2,-34.1,-99.9,69,22,43,18.80,18.80,10,-593,12,0.00